{"data":{"norad_id":40147,"epoch":"2026-05-25T02:28:00.160032Z","epoch_age_seconds":65332,"freshness":"FRESH","line1":"1 40147U 14054B   26145.10277963 -.00000244  00000+0  00000+0 0  9992","line2":"2 40147   0.0548  52.6460 0003290 359.1601 319.4129  1.00272112 42671","mean_motion":1.00272112,"eccentricity":0.000329,"inclination_deg":0.0548,"raan_deg":52.646,"arg_perigee_deg":359.1601,"mean_anomaly_deg":319.4129,"bstar":0,"rev_number":4267,"period_min":1436.0922207363,"perigee_km":35772.631124813,"apogee_km":35800.375458125,"semimajor_km":42164.640291469,"source":"CELESTRAK","updated_at":"2026-05-25T13:38:13.951823Z"}}